Weather History for Newberry, MI

Change the Weather History Date:

Tuesday, October 25, 2011

  Actual Average Record
Temperature  
Mean Temperature 37 °F -  
Max Temperature 44 °F 51 °F 68 °F (1964)
Min Temperature 30 °F 34 °F 18 °F (1930)
Degree Days  
Heating Degree Days 28    
Moisture  
Dew Point 33 °F    
Average Humidity 86    
Maximum Humidity 100    
Minimum Humidity 66    
Precipitation  
Precipitation 0.00 in - - ()
Sea Level Pressure  
Sea Level Pressure 30.08 in    
Wind  
Wind Speed 3 mph (WSW)    
Max Wind Speed 7 mph    
Max Gust Speed -    
Visibility 10 miles    
Events      
Averages and records for this station are not official NWS values.
T = Trace of Precipitation, MM = Missing Value Source: NWS Daily Summary

Daily Weather History Graph

Daily Weather History Graph

Search for Another Location

Airport:

Trip Planner

Search our weather history database for the weather conditions in past years. The results will help you decide how hot, cold, wet, or windy it might be!

Date:

Astronomy

Oct. 25, 2011 Rise Set
Actual Time 8:12 AM EDT 6:38 PM EDT
Civil Twilight 7:41 AM EDT 7:09 PM EDT
Nautical Twilight 7:06 AM EDT 7:44 PM EDT
Astronomical Twilight 6:31 AM EDT 8:19 PM EDT
Moon 6:42 AM EDT (10/25) 5:39 PM EDT (10/25)
Length of Visible Light 11h 27m
Length of Day
10h 25m
Waning Crescent, 2% of the Moon is Illuminated
Oct 25
Waning Crescent
Oct 26
New
Nov 2
First Quarter
Nov 10
Full
Nov 18
Last Quarter

Hourly Weather History & Observations

Time (EDT) Temp. Windchill Dew Point Humidity Pressure Visibility Wind Dir Wind Speed Gust Speed Precip Events Conditions
12:15 AM 35.6 °F 31.7 °F 32.0 °F 87% 30.05 in 10.0 mi WSW 4.6 mph - N/A   Clear
12:34 AM 33.8 °F 29.6 °F 30.2 °F 87% 30.05 in 10.0 mi WSW 4.6 mph - N/A   Clear
12:54 AM 32.0 °F 28.7 °F 30.2 °F 93% 30.05 in 10.0 mi WSW 3.5 mph - N/A   Clear
1:15 AM 32.0 °F 28.7 °F 30.2 °F 93% 30.05 in 10.0 mi SW 3.5 mph - N/A   Clear
1:34 AM 32.0 °F 28.7 °F 30.2 °F 93% 30.06 in 10.0 mi West 3.5 mph - N/A   Clear
1:54 AM 33.8 °F 28.6 °F 30.2 °F 87% 30.06 in 10.0 mi West 5.8 mph - N/A   Scattered Clouds
2:15 AM 33.8 °F 29.6 °F 32.0 °F 93% 30.07 in 10.0 mi West 4.6 mph - N/A   Mostly Cloudy
2:34 AM 35.6 °F 30.7 °F 32.0 °F 87% 30.08 in 10.0 mi West 5.8 mph - N/A   Mostly Cloudy
3:14 AM 33.8 °F 27.7 °F 32.0 °F 93% 30.09 in 10.0 mi WSW 6.9 mph - N/A   Clear
3:34 AM 33.8 °F 27.7 °F 30.2 °F 87% 30.09 in 10.0 mi West 6.9 mph - N/A   Clear
3:55 AM 33.8 °F 28.6 °F 30.2 °F 87% 30.09 in 10.0 mi WSW 5.8 mph - N/A   Clear
4:14 AM 33.8 °F 29.6 °F 30.2 °F 87% 30.08 in 10.0 mi WSW 4.6 mph - N/A   Clear
4:34 AM 33.8 °F 29.6 °F 30.2 °F 87% 30.08 in 10.0 mi WSW 4.6 mph - N/A   Clear
4:55 AM 33.8 °F 30.8 °F 30.2 °F 87% 30.09 in 10.0 mi WSW 3.5 mph - N/A   Clear
5:14 AM 30.2 °F 25.4 °F 30.2 °F 100% 30.09 in 10.0 mi West 4.6 mph - N/A   Clear
5:34 AM 33.8 °F 30.8 °F 30.2 °F 87% 30.09 in 10.0 mi WSW 3.5 mph - N/A   Clear
5:54 AM 33.8 °F 30.8 °F 30.2 °F 87% 30.09 in 10.0 mi SW 3.5 mph - N/A   Clear
6:14 AM 30.2 °F 25.4 °F 28.4 °F 93% 30.09 in 10.0 mi SW 4.6 mph - N/A   Clear
6:35 AM 30.2 °F - 30.2 °F 100% 30.10 in 10.0 mi Calm Calm - N/A   Clear
6:54 AM 30.2 °F - 30.2 °F 100% 30.10 in 10.0 mi Calm Calm - N/A   Clear
7:14 AM 30.2 °F - 28.4 °F 93% 30.10 in 10.0 mi Calm Calm - N/A   Scattered Clouds
7:34 AM 30.2 °F - 28.4 °F 93% 30.09 in 10.0 mi Calm Calm - N/A   Scattered Clouds
7:54 AM 30.2 °F - 30.2 °F 100% 30.10 in 10.0 mi Calm Calm - N/A   Scattered Clouds
8:15 AM 30.2 °F 26.7 °F 28.4 °F 93% 30.09 in 10.0 mi West 3.5 mph - N/A   Clear
8:34 AM 30.2 °F - 28.4 °F 93% 30.09 in 10.0 mi Calm Calm - N/A   Clear
8:55 AM 30.2 °F - 30.2 °F 100% 30.10 in 10.0 mi Calm Calm - N/A   Clear
9:15 AM 35.6 °F - 33.8 °F 93% 30.10 in 10.0 mi Calm Calm - N/A   Clear
9:34 AM 33.8 °F - 32.0 °F 93% 30.11 in 10.0 mi Calm Calm - N/A   Clear
9:54 AM 37.4 °F - 35.6 °F 93% 30.11 in 10.0 mi Calm Calm - N/A   Clear
10:14 AM 37.4 °F - 35.6 °F 93% 30.11 in 10.0 mi Calm Calm - N/A   Clear
10:35 AM 39.2 °F 37.0 °F 35.6 °F 87% 30.11 in 10.0 mi SSW 3.5 mph - N/A   Clear
10:54 AM 39.2 °F - 35.6 °F 87% 30.11 in 10.0 mi Calm Calm - N/A   Clear
11:14 AM 41.0 °F - 37.4 °F 87% 30.11 in 10.0 mi Calm Calm - N/A   Clear
11:35 AM 42.8 °F - 35.6 °F 76% 30.10 in 10.0 mi Calm Calm - N/A   Clear
11:54 AM 42.8 °F - 35.6 °F 76% 30.10 in 10.0 mi Calm Calm - N/A   Clear
12:14 PM 42.8 °F 41.1 °F 35.6 °F 76% 30.09 in 10.0 mi NE 3.5 mph - N/A   Scattered Clouds
12:35 PM 42.8 °F - 35.6 °F 76% 30.09 in 10.0 mi Calm Calm - N/A   Scattered Clouds
12:54 PM 44.6 °F - 35.6 °F 71% 30.09 in 10.0 mi Calm Calm - N/A   Scattered Clouds
1:14 PM 44.6 °F - 35.6 °F 71% 30.08 in 10.0 mi Calm Calm - N/A   Scattered Clouds
1:34 PM 44.6 °F 42.2 °F 35.6 °F 71% 30.07 in 10.0 mi NE 4.6 mph - N/A   Clear
1:55 PM 44.6 °F - 35.6 °F 71% 30.07 in 10.0 mi Calm Calm - N/A   Scattered Clouds
2:14 PM 44.6 °F - 35.6 °F 71% 30.06 in 10.0 mi Calm Calm - N/A   Scattered Clouds
2:34 PM 44.6 °F 42.2 °F 35.6 °F 71% 30.05 in 10.0 mi NE 4.6 mph - N/A   Scattered Clouds
3:14 PM 44.6 °F - 35.6 °F 71% 30.04 in 10.0 mi Calm Calm - N/A   Scattered Clouds
3:34 PM 44.6 °F - 35.6 °F 71% 30.04 in 10.0 mi Calm Calm - N/A   Scattered Clouds
4:35 PM 44.6 °F - 33.8 °F 66% 30.02 in 10.0 mi Calm Calm - N/A   Clear
4:54 PM 44.6 °F - 35.6 °F 71% 30.02 in 10.0 mi Calm Calm - N/A   Scattered Clouds
5:14 PM 44.6 °F - 37.4 °F 76% 30.00 in 10.0 mi Calm Calm - N/A   Scattered Clouds
5:35 PM 44.6 °F - 35.6 °F 71% 30.01 in 10.0 mi Calm Calm - N/A   Mostly Cloudy
5:54 PM 42.8 °F - 35.6 °F 76% 30.00 in 10.0 mi Calm Calm - N/A   Scattered Clouds
6:14 PM 42.8 °F - 37.4 °F 81% 29.99 in 10.0 mi Calm Calm - N/A   Overcast
6:34 PM 42.8 °F - 35.6 °F 76% 29.99 in 10.0 mi Calm Calm - N/A   Overcast
7:15 PM 42.8 °F 41.1 °F 37.4 °F 81% 30.01 in 10.0 mi North 3.5 mph - N/A   Overcast
7:34 PM 41.0 °F - 37.4 °F 87% 30.00 in 10.0 mi Calm Calm - N/A   Overcast
7:54 PM 41.0 °F - 37.4 °F 87% 30.02 in 10.0 mi Calm Calm - N/A   Overcast
8:14 PM 41.0 °F - 37.4 °F 87% 30.03 in 10.0 mi Calm Calm - N/A   Overcast
8:34 PM 41.0 °F 39.0 °F 37.4 °F 87% 30.03 in 10.0 mi North 3.5 mph - N/A   Overcast
9:14 PM 41.0 °F - 37.4 °F 87% 30.03 in 10.0 mi Calm Calm - N/A   Overcast
9:34 PM 41.0 °F 38.0 °F 37.4 °F 87% 30.02 in 10.0 mi NNW 4.6 mph - N/A   Overcast
9:55 PM 39.2 °F 37.0 °F 35.6 °F 87% 30.03 in 10.0 mi NNW 3.5 mph - N/A   Overcast
10:14 PM 39.2 °F - 37.4 °F 93% 30.03 in 10.0 mi Calm Calm - N/A   Overcast
10:34 PM 39.2 °F - 35.6 °F 87% 30.03 in 10.0 mi Calm Calm - N/A   Overcast
10:54 PM 39.2 °F - 35.6 °F 87% 30.02 in 10.0 mi Calm Calm - N/A   Overcast
11:14 PM 39.2 °F - 35.6 °F 87% 30.02 in 10.0 mi Calm Calm - N/A   Overcast
11:34 PM 39.2 °F - 35.6 °F 87% 30.03 in 10.0 mi Calm Calm - N/A   Overcast
11:54 PM 39.2 °F - 35.6 °F 87% 29.99 in 10.0 mi Calm Calm - N/A   Overcast